TimeEST,TemperatureF,Dew PointF,Humidity,Sea Level PressureIn,VisibilityMPH,Wind Direction,Wind SpeedMPH,Gust SpeedMPH,PrecipitationIn,Events,Conditions,WindDirDegrees,DateUTC
12:15 AM,59.9,55.0,84,30.09,10.0,South,4.6,-,N/A,,Clear,180,2013-01-30 05:15:00
12:35 AM,60.8,55.6,83,30.08,10.0,South,4.6,-,N/A,,Clear,180,2013-01-30 05:35:00
12:55 AM,60.8,55.8,83,30.08,10.0,South,5.8,-,N/A,,Clear,190,2013-01-30 05:55:00
1:15 AM,61.0,55.9,83,30.08,10.0,South,5.8,-,N/A,,Clear,190,2013-01-30 06:15:00
1:35 AM,60.8,56.1,85,30.07,10.0,SSW,6.9,-,N/A,,Clear,200,2013-01-30 06:35:00
1:55 AM,61.0,56.5,85,30.07,10.0,South,5.8,-,N/A,,Clear,190,2013-01-30 06:55:00
2:15 AM,61.0,57.0,87,30.06,10.0,SSW,8.1,-,N/A,,Clear,200,2013-01-30 07:15:00
2:35 AM,61.2,57.6,88,30.05,10.0,SSW,6.9,-,N/A,,Clear,200,2013-01-30 07:35:00
2:55 AM,61.5,57.9,88,30.06,10.0,SSW,8.1,-,N/A,,Mostly Cloudy,200,2013-01-30 07:55:00
3:15 AM,61.5,58.3,89,30.04,10.0,South,5.8,-,N/A,,Mostly Cloudy,170,2013-01-30 08:15:00
3:35 AM,61.0,58.1,90,30.04,10.0,South,5.8,-,N/A,,Scattered Clouds,190,2013-01-30 08:35:00
3:55 AM,60.6,58.1,91,30.03,10.0,South,4.6,-,N/A,,Mostly Cloudy,170,2013-01-30 08:55:00
4:15 AM,60.1,57.9,93,30.03,7.0,South,5.8,-,N/A,,Mostly Cloudy,180,2013-01-30 09:15:00
4:35 AM,60.1,58.1,93,30.03,7.0,South,6.9,-,N/A,,Overcast,190,2013-01-30 09:35:00
4:55 AM,61.2,59.0,93,30.02,10.0,South,9.2,-,N/A,,Overcast,190,2013-01-30 09:55:00
5:15 AM,62.4,59.4,90,30.01,10.0,SSW,10.4,-,N/A,,Overcast,200,2013-01-30 10:15:00
5:35 AM,62.8,59.4,89,30.01,10.0,South,6.9,-,N/A,,Mostly Cloudy,190,2013-01-30 10:35:00
5:55 AM,62.6,59.4,89,30.01,10.0,South,8.1,-,N/A,,Mostly Cloudy,190,2013-01-30 10:55:00
6:15 AM,62.4,59.4,90,30.01,10.0,South,6.9,-,N/A,,Mostly Cloudy,190,2013-01-30 11:15:00
6:35 AM,62.4,59.4,90,30.01,10.0,South,6.9,-,N/A,,Mostly Cloudy,180,2013-01-30 11:35:00
6:55 AM,62.1,59.2,90,30.00,10.0,South,9.2,-,N/A,,Scattered Clouds,180,2013-01-30 11:55:00
7:15 AM,61.7,59.0,91,29.99,7.0,South,9.2,-,N/A,,Scattered Clouds,170,2013-01-30 12:15:00
7:35 AM,61.7,59.0,91,29.99,7.0,South,10.4,17.3,N/A,,Scattered Clouds,180,2013-01-30 12:35:00
8:15 AM,63.1,59.4,87,29.99,10.0,South,9.2,16.1,N/A,,Mostly Cloudy,190,2013-01-30 13:15:00
8:35 AM,63.5,59.7,87,29.99,10.0,South,12.7,17.3,N/A,,Overcast,190,2013-01-30 13:35:00
8:55 AM,64.0,59.9,86,29.98,10.0,South,10.4,17.3,N/A,,Overcast,190,2013-01-30 13:55:00
9:15 AM,64.9,60.1,84,29.98,10.0,South,10.4,21.9,N/A,,Overcast,190,2013-01-30 14:15:00
9:35 AM,65.8,60.6,83,29.97,10.0,South,12.7,18.4,N/A,,Overcast,180,2013-01-30 14:35:00
9:55 AM,67.3,61.0,80,29.96,10.0,South,12.7,20.7,N/A,,Overcast,190,2013-01-30 14:55:00
10:15 AM,68.9,61.3,77,29.95,10.0,South,13.8,19.6,N/A,,Overcast,190,2013-01-30 15:15:00
10:35 AM,70.0,61.3,74,29.95,10.0,SSW,17.3,25.3,N/A,,Mostly Cloudy,200,2013-01-30 15:35:00
10:55 AM,72.3,61.2,68,29.94,10.0,SSW,13.8,25.3,N/A,,Mostly Cloudy,200,2013-01-30 15:55:00
11:15 AM,74.3,61.0,63,29.92,10.0,South,17.3,25.3,N/A,,Mostly Cloudy,190,2013-01-30 16:15:00
11:35 AM,74.3,60.3,61,29.90,10.0,South,16.1,26.5,N/A,,Scattered Clouds,190,2013-01-30 16:35:00
11:55 AM,74.7,60.1,60,29.90,10.0,SSW,17.3,27.6,N/A,,Mostly Cloudy,200,2013-01-30 16:55:00
12:15 PM,73.0,60.1,64,29.89,10.0,SSW,19.6,29.9,N/A,,Overcast,200,2013-01-30 17:15:00
12:55 PM,74.1,60.6,63,29.85,10.0,South,16.1,21.9,N/A,,Overcast,180,2013-01-30 17:55:00
1:15 PM,74.5,60.3,61,29.84,10.0,SSW,16.1,29.9,N/A,,Overcast,200,2013-01-30 18:15:00
1:35 PM,74.3,60.3,61,29.82,10.0,South,10.4,23.0,N/A,,Overcast,180,2013-01-30 18:35:00
1:55 PM,74.8,60.3,60,29.82,10.0,South,24.2,29.9,N/A,,Overcast,180,2013-01-30 18:55:00
2:15 PM,74.7,60.3,61,29.80,10.0,South,16.1,25.3,N/A,,Overcast,190,2013-01-30 19:15:00
2:35 PM,73.9,60.3,62,29.79,10.0,South,12.7,26.5,N/A,,Overcast,190,2013-01-30 19:35:00
2:55 PM,73.8,60.8,64,29.79,10.0,South,13.8,28.8,N/A,,Overcast,180,2013-01-30 19:55:00
3:15 PM,74.1,60.6,63,29.78,10.0,South,16.1,25.3,N/A,,Overcast,180,2013-01-30 20:15:00
3:35 PM,74.3,60.8,63,29.76,10.0,South,16.1,24.2,N/A,,Overcast,180,2013-01-30 20:35:00
3:55 PM,74.3,60.4,62,29.75,10.0,South,16.1,25.3,N/A,,Overcast,170,2013-01-30 20:55:00
4:15 PM,74.5,60.1,61,29.74,10.0,South,18.4,28.8,N/A,,Mostly Cloudy,170,2013-01-30 21:15:00
4:35 PM,73.8,59.5,61,29.73,10.0,South,12.7,28.8,N/A,,Mostly Cloudy,180,2013-01-30 21:35:00
4:55 PM,72.9,59.2,62,29.72,10.0,South,15.0,23.0,N/A,,Overcast,180,2013-01-30 21:55:00
5:15 PM,72.5,59.0,62,29.71,10.0,South,20.7,31.1,N/A,,Overcast,190,2013-01-30 22:15:00
5:35 PM,72.3,59.0,63,29.70,10.0,South,12.7,26.5,N/A,,Overcast,170,2013-01-30 22:35:00
5:55 PM,71.8,59.4,65,29.71,10.0,South,13.8,24.2,N/A,,Overcast,180,2013-01-30 22:55:00
6:15 PM,71.6,59.5,66,29.70,10.0,South,16.1,26.5,N/A,,Overcast,170,2013-01-30 23:15:00
6:35 PM,71.1,59.9,68,29.69,10.0,South,16.1,26.5,N/A,,Overcast,170,2013-01-30 23:35:00
6:55 PM,70.9,60.3,69,29.68,10.0,South,18.4,26.5,N/A,,Overcast,170,2013-01-30 23:55:00
7:15 PM,70.7,60.6,70,29.67,10.0,South,17.3,27.6,N/A,,Overcast,170,2013-01-31 00:15:00
7:35 PM,70.7,60.8,71,29.66,10.0,South,17.3,26.5,N/A,,Overcast,170,2013-01-31 00:35:00
7:55 PM,70.7,60.8,71,29.64,10.0,South,17.3,24.2,N/A,,Overcast,170,2013-01-31 00:55:00
8:15 PM,70.7,60.8,71,29.63,10.0,South,18.4,28.8,N/A,,Overcast,170,2013-01-31 01:15:00
8:35 PM,70.3,60.8,72,29.61,10.0,South,19.6,31.1,N/A,,Overcast,170,2013-01-31 01:35:00
8:55 PM,70.5,60.6,71,29.60,10.0,South,18.4,34.5,N/A,,Overcast,170,2013-01-31 01:55:00
9:15 PM,70.7,60.8,71,29.59,10.0,South,19.6,33.4,N/A,,Overcast,170,2013-01-31 02:15:00
9:35 PM,70.9,60.8,70,29.59,10.0,South,20.7,34.5,N/A,,Overcast,180,2013-01-31 02:35:00
9:55 PM,71.1,60.8,70,29.57,10.0,South,19.6,32.2,N/A,,Overcast,170,2013-01-31 02:55:00
10:15 PM,71.1,60.8,70,29.55,10.0,South,20.7,29.9,N/A,,Overcast,180,2013-01-31 03:15:00
10:35 PM,71.2,60.8,69,29.53,10.0,South,18.4,33.4,N/A,,Overcast,180,2013-01-31 03:35:00
11:15 PM,71.4,61.0,70,29.51,10.0,South,20.7,32.2,N/A,,Overcast,170,2013-01-31 04:15:00
11:35 PM,71.4,61.2,70,29.49,10.0,South,18.4,31.1,N/A,,Overcast,180,2013-01-31 04:35:00
11:55 PM,71.1,61.3,71,29.46,10.0,South,17.3,32.2,N/A,,Drizzle,170,2013-01-31 04:55:00